{"data":{"norad_id":45054,"intl_designator":"2020-006L","name":"STARLINK-1156","alt_names":[],"object_type":"PAYLOAD","status":"ACTIVE","operator":null,"country":"US","launch_date":"2020-01-29","launch_site_code":"AFETR","launch_vehicle":null,"mission":null,"orbit_class":"UNKNOWN","rcs_meters":null,"size_class":null,"mass_kg":null,"dimensions":null,"purposes":["comms"],"wikipedia_slug":null,"has_3d_model":false,"image_url":null,"decayed_at":null,"tle_current":{"epoch":"2026-09-20T03:17:26.311776Z","epoch_age_seconds":46090,"freshness":"FRESH","line1":"1 45054U 20006L   26263.13711009  .00042577  00000+0  93437-3 0  9990","line2":"2 45054  53.1519  89.9806 0000627 165.8008 194.3017 15.43656562366426","mean_motion":15.43656562,"eccentricity":6.27e-5,"inclination_deg":53.1519,"raan_deg":89.9806,"arg_perigee_deg":165.8008,"mean_anomaly_deg":194.3017,"bstar":0.00093437,"rev_number":36642,"period_min":93.284998454209,"perigee_km":434.90115711625,"apogee_km":435.75556567257,"semimajor_km":6813.4653613944,"source":"CELESTRAK","updated_at":"2026-09-20T09:00:38.222836Z"}}}